Погода в Серафимовиче

Погода в Серафимовиче : погода сейчас, прогноз погоды и архив. Всё, что Вы хотите узнать о погоде в Серафимовиче!

Поиск расширенной информации на нашем сайте:

Другие новости

Новости СМИ2

Главная страница сайта

Новости сайта

02.10.2013

Напоминаем, что на нашем новом сайте вы можете получить высокодетализированные прогнозы погоды по пунктам России, СНГ и мира (включающие важные для авиации метеовеличины, такие как направление и скорость ветра, видимость, явления погоды, количество и форма облачности, нижняя и верхняя граница облачности), а также ознакомиться с разнообразными материалами по авиационной метеорологии и подборкой полезных ссылок на эту тему.

Сайт Метеоцентр.Азия посвящён разработке технологий оптимизации авиаметеорологического обслуживания, включая проектирование и перспективное создание нескольких автоматизированных авиаметеорологических систем:
- система выпуска высокодетальных прогностических карт явлений погоды для нижнего воздушного пространства по России и ближнему зарубежью;
- система верификации прогнозов TAF (выпускаемых синоптиками официальных АМСГ РФ и ближнего зарубежья) и AUTOTAF (выпускаемых сайтом Метеоцентр.Азия) - выявление ошибок, онлайн-сопоставление с фактической погодой METAR, автоматическое внесение коррективов в прогнозы при резком отклонении фактической погоды от прогноза, подсчёт оправдываемости прогнозов по элементам и в целом;
- система обработки, анализа и отображения авиаметеорологической информации для применения провайдерами метеорологической информации.

Рекомендуем: Работаем с овощами и салатами. Для ускорения работы используйте яйцерезку, это удобно.

Погода в Серафимовиче - сегодня

Время (UTC), дата Ветер
(°,м/с) 
Видим.   Явления Облачность Т
(°С)
Тd
(°С)
f(%) Тe
(°С)
Pmin
(гПа)
dP
(гПа)
Po
(мм)
O2
(г/м3)
Тmin Tmax R s Состояние
почвы
21 16.04.17 190 (Ю) 6{11}  20000 м    ясно 
+10 -2.2 42 +8  1011.9  -0.3  748  291           
06 17.04.17 220 (ЮЗ) 3{11}  20000 м    10/0 средняя 
[Ac und]
+12.3 +2.4 51 +12  1011.8  0.7  748  288           
09 17.04.17 220 (ЮЗ) 20000 м    10/6 600 м кучево-дожд., средняя 
[Cb calv|Ac und]
+14.4 +2.2 44 +15  1011.5  -0.2  747  286           
18 17.04.17 010 (С) 10 км  {ливн. осадки}  10/5 600 м кучево-дожд., средняя 
[Cb calv|Ac und]
+9 +7.6 91 +9  1014.5  1.8  749  291           
21 17.04.17 060 (СВ) 10 км  в посл. час ливневой дождь  10/8 600 м кучево-дожд., средняя 
[Cb calv|Ac und]
+8.1 +7.1 93 +8  1014.3  -0.2  749  292           
09 18.04.17 040 (СВ) 5{11}  20000 м    10/8 600 м кучево-дожд., средняя 
[Cb calv|Ac und]
+5.2 +2.6 83 +3  1014.1  -0.5  749  296           
18 18.04.17 030 (СВ) 20000 м    10/10 600 м кучево-дожд. 
[Cb calv]
+6.7 +5.2 90 +6  1011.6  0.8  747  293           
21 18.04.17 330 (СЗ) 20000 м    10/10 600 м кучево-дожд. 
[Cb calv]
+6.3 +5.2 93 +7  1011.2  -0.4  747  293           
06 19.04.17 130 (ЮВ) 4000 м  дымка{ливн. осадки}  10/10 600 м кучево-дожд. 
[Cb calv]
+7.2 +6.2 93 +6  1008.9  -2.3  745  292           
09 19.04.17 220 (ЮЗ) 4000 м  в посл. час ливневой дождь  10/10 600 м кучево-дожд. 
[Cb calv]
+10.5 +7.9 84 +10  1010.2  1.5  746  288           
21 19.04.17 260 (З) 20000 м  {ливн. осадки}  10/10 600 м кучево-дожд. 
[Cb calv]
+4.2 +2.9 91 +3  1012.6  0.9  748  296           
09 20.04.17 310 (СЗ) 4{12}  20000 м    9/9 300 м кучево-дожд. 
[Cb calv]
+2.3 -3.8 64 1020.6  754  302           
18 20.04.17 020 (С) 20000 м    8/3 300 м кучево-дожд., верхняя 
[Cb calv|Ci]
+0.4 -4.4 70 -1  1022.9  1.2  755  304           
21 20.04.17 110 (В) 20000 м    8/0 средняя, верхняя 
[Ac trans|Ci]
-0.3 -4.1 75 -1  1023  755  305           
00 21.04.17 060 (СВ) 20000 м    8/0 средняя 
[Ac trans]
-0.8 -3.7 81 1022.4  -0.6  755  305           
06 21.04.17 090 (В) 5{10}  20000 м    10/3 600 м кучево-дожд., средняя 
[Cb calv|Ac und]
+3 -6.5 50 +1  1020.6  -1  754  301           
09 21.04.17 120 (ЮВ) 4{11}  20000 м    10/0 средняя 
[Ac und]
+4.7 -4.6 51 +3  1019.3  -1.3  753  299           
12 21.04.17 110 (В) 20000 м    10/10 600 м 
[Sc]
+6 -3.9 49 +4  1016.1  -3  751  296           
18 21.04.17 130 (ЮВ) 10 км  слаб. дождь{ливн. осадки}  10/10 300 м 
[Frnb|Ns]
+4.1 +1.5 83 +2  1012.2  -1.8  748  297           
21 21.04.17 150 (ЮВ) 10 км  слаб. дождь  10/10 300 м 
[Frnb|Ns]
+3.7 +2.6 92 +2  1009.5  -2.7  746  296           
06 22.04.17 220 (ЮЗ) 20000 м  слаб. ливневой дождь  10/10 300 м кучево-дожд. 
[Cb cap]
+4.6 +2.3 85 +3  1003.2  -2.1  741  293           
09 22.04.17 250 (З) 20000 м  {ливн. осадки}  8/6 300 м кучево-дожд., средняя 
[Cb calv|Ac trans]
+8.1 +2.4 67 +7  1003.2  0.2  741  290           
18 22.04.17 230 (ЮЗ) 20000 м    10/0 средняя 
[Ac und]
+8.5 +2.2 65 +7  1008.8  1.4  745  291           
21 22.04.17 230 (ЮЗ) 5-10{11}  20000 м    ясно 
+8.1 +2.8 69 +7  1008.9  -0.1  745  291           
00 23.04.17 230 (ЮЗ) 5{13}  20000 м    ясно 
+7 +3.4 78 +5  1008.9  0.1  745  292           
Время (UTC), дата Ветер
(°,м/с) 
Видим.   Явления Облачность Т
(°С)
Тd
(°С)
f(%) Тe
(°С)
Pmin
(гПа)
dP
(гПа)
Po
(мм)
O2
(г/м3)
Тmin Tmax R s Состояние
почвы

Для получения пояснительной информации подведите курсор к названию столбца.

ПОГОДА в Серафимовиче - архив

Всё, что Вы хотите узнать о погоде в Серафимовиче - удобно и подробно!

Выберите нужную дату (начиная с 1 января 2015* года) и нажмите кнопку "Найти".
Будут отображены архивные сводки погоды по пункту Серафимович, начиная с указанной даты.


Отображать данные в формате CSV (для использования в таблицах Excel)


Внимание! Наш архив погоды предназначен исключительно для личного некоммерческого использования в познавательных целях. Если Вам необходимы официальные справки о состоянии погоды (для производственных, юридических, коммерческих и т.п. целей), обращайтесь в органы Росгидромета.

*Примечание: данная дата относится к архиву по метеостанциям СССР (Россия, СНГ, Балтия).
Архив по метеостанциям Зарубежной Европы и Азии (кроме Китая) хранится 10 дней, по другим регионам земного шара (Китай, Африка, Америка, Австралия, Океания) - 1 день.

Серафимович - район местоположения метеостанции


Название, широта, долгота, высота метеостанции:
Серафимович 49.6°ш. 42.8°д. 200 м над ур. моря [Российская Федерация]

Дополнительная информация

В oтличие oт бoльшинства пoгoдных сайтoв мы публикуем пoдрoбную метеoинфoрмацию в детальнoм прoфессиoнальнoм фoрмате.

Характеристики температуры и влажнoсти вoздуха измеряются на высoте 2 м в тени вдали oт зданий и деревьев.
Скoрoсть ветра измеряется на высoте 10 м (на урoвне рoста челoвека скoрoсть ветра ниже в 1.5-2 раза). Если метеoстанция нахoдится в гoрoде или в лесу, тo скoрoсть ветра занижена на 2-4 м/с пo сравнению с oткрытым местoм. Скoрoсть ветра над акватoриями крупных рек и oзёр, а также на вершинах хoлмoв на 2-5 м/с выше, чем в oбычных услoвиях.
Атмoсфернoе давление в разных тoчках местнoсти мoжет значительнo oтличаться oт давления на метеoстанции, в зависимoсти oт услoвий рельефа (при пoдъёме на 10 м давление пoнижается примернo на 1 мм рт.ст.).